sat.trackr.live / text

‹ back to catalog

LEMUR-2-POLO-11

NORAD 68493 · 2026-067CF

PAYLOAD ACTIVE UNKNOWN

§ Identity

Operator
Country
LUXE
Launch date
2026-03-30
Launch site
AFWTR
Launch vehicle
Mass (kg)
RCS (m²)

External: N2YO · Heavens-Above · Gunter

§ Orbital elements

Epoch: 2026-05-24T20:37:02.192160Z

Period
96.55 min
Inclination
97.7638°
Eccentricity
0.0005667
Mean motion
14.91401600 rev/d
Perigee alt
589.6 km
Apogee alt
597.5 km
Semi-major
6,971.7 km
B*
3.9007e-4
RAAN
103.4669°
Arg perigee
97.8682°
Mean anomaly
262.3180°
Rev number
824

§ Raw data

LEMUR-2-POLO-111 68493U 26067CF  26144.85905315  .00003841  00000+0  39007-3 0  99912 68493  97.7638 103.4669 0005667  97.8682 262.3180 14.91401600  8247

JSON: /api/v1/satellites/68493 · /tle

For live sub-satellite position, see the globe view (requires WebGL).

§ Visibility from observer

Set your observer location to see the next 7 days of passes ≥ 10°. The values pass through the URL so the page stays shareable.

No JS? Fill the form by hand. The geolocation button needs JavaScript.